Regional Weather Roundup
Issued by NWS

Home | Current Version | Previous Version | Graphics & Text | Print | Product List | Glossary Off
Versions: 1 2 3 4 5 6 7 8 9 10 11 12 13 14 15 16 17 18 19 20 21 22 23 24 25 26 27 28 29 30 31 32 33 34 35 36 37 38 39 40 41 42 43 44 45 46 47 48 49 50

543
ASUS43 KTOP 231608
RWRKS

WEATHER ROUNDUP FOR KANSAS
NATIONAL WEATHER SERVICE GOODLAND KS
1000 AM CST MON JAN 23 2017

NOTE:  "FAIR" INDICATES FEW OR NO CLOUDS BELOW 12,000 FEET WITH NO
SIGNIFICANT WEATHER AND/OR OBSTRUCTIONS TO VISIBILITY.

KSZ001>006-013>018-027>032-041>047-231700-
NORTHWEST KANSAS

CITY           SKY/WX    TMP DP  RH WIND       PRES   REMARKS
GOODLAND       SUNNY     36  27  69 S22       29.65F WCI  25
HAYS           SUNNY     35  30  82 S7        29.84S
HILL CITY      SUNNY     36  30  79 S3        29.80F
RUSSELL        SUNNY     37  32  82 S7        29.83S
$$

KSZ061>065-074>080-084>089-231700-
SOUTHWEST KANSAS

CITY           SKY/WX    TMP DP  RH WIND       PRES   REMARKS
DODGE CITY     SUNNY     37  31  78 S14       29.80F WCI  28
ELKHART          N/A     37  24  59 S6          N/A
GARDEN CITY    SUNNY     39  31  72 S14       29.76F WCI  31
GREAT BEND     CLOUDY    36  29  75 S8        29.86S
LIBERAL          N/A     39  30  70 SW14      29.78S WCI  31
PRATT          CLOUDY    37  29  74 S10       29.88S WCI  29
$$

KSZ066>073-081>083-090>101-231700-
SOUTHEAST KANSAS

CITY           SKY/WX    TMP DP  RH WIND       PRES   REMARKS
CHANUTE        SUNNY     38  34  85 CALM      29.93R
COFFEYVILLE    SUNNY     39  35  86 CALM      29.94R
HUTCHINSON     SUNNY     39  32  76 S7        29.90R
MEDICINE LODGE   N/A     36  31  82 S7        29.91R
NEWTON         SUNNY     39  34  82 SW9       29.92R
PARSONS        SUNNY     38  34  85 CALM      29.94R
WICHITA INTL   MOSUNNY   39  33  79 S7        29.92R
WICHITA JABRA  SUNNY     41  35  79 SW7       29.92R
WICHITA MCCONL SUNNY     40  34  78 SW9       29.92R
WINFIELD       MOSUNNY   39  34  82 CALM      29.94R
$$

KSZ007>012-019>026-033>040-048>060-102>105-231700-
NORTHEAST KANSAS

CITY           SKY/WX    TMP DP  RH WIND       PRES   REMARKS
CONCORDIA      MOSUNNY   32  31  96 E5        29.86F
EMPORIA        SUNNY     37  35  92 CALM      29.91R
LAWRENCE       FOG       31  31 100 NW3       29.93R VSB<1/4
MANHATTAN      SUNNY     32  29  88 CALM      29.90S
MARYSVILLE     FOG      N/A N/A N/A NE3       29.91R VSB<1/4
OLATHE IND     FOG       31  31 100 N8        29.92R VSB<1/4
OLATHE EXE     FOG       31  31 100 N6        29.90S VSB 3/4
SALINA         SUNNY     30  28  92 CALM      29.90R
TOPEKA BILLARD FOG       30  28  92 CALM      29.93R VSB 1/4
TOPEKA FORBES  CLOUDY    33  30  88 N6        29.91R FOG
$$




USA.gov is the U.S. government's official web portal to all federal, state and local government web resources and services.